Regional Weather Roundup
Issued by NWS Charleston, WV

Home | Current Version | Previous Version | Text Only | Print | Product List | Glossary Off
Versions: 1 2 3 4 5 6 7 8 9 10 11 12 13 14 15 16 17 18 19 20 21 22 23 24 25 26 27 28

000
ASUS41 KRLX 200510
RWRRLX
West Virginia Regional Weather Roundup
National Weather Service Charleston WV
100 AM EDT SUN APR 20 2014

Note: "fair" indicates few or no clouds below 12,000 feet with no
significant weather and/or obstructions to visibility.

WVZ003-200600-
Northern Panhandle of West Virginia

CITY           SKY/WX    TMP DP  RH WIND       PRES   REMARKS
WHEELING       PTCLDY    49  26  41 NE8       30.28S
$$

WVZ009-200600-
Northwest West Virginia

CITY           SKY/WX    TMP DP  RH WIND       PRES   REMARKS
PARKERSBURG    MOCLDY    47  34  60 CALM      30.28F
$$

WVZ006-200600-
Western West Virginia

CITY           SKY/WX    TMP DP  RH WIND       PRES   REMARKS
HUNTINGTON     MOCLDY    56  31  38 NE5       30.22S
$$

WVZ015-200600-
West Central West Virginia

CITY           SKY/WX    TMP DP  RH WIND       PRES   REMARKS
CHARLESTON     CLOUDY    54  37  52 E5        30.23S
$$

WVZ031-200600-
North Central West Virginia

CITY           SKY/WX    TMP DP  RH WIND       PRES   REMARKS
CLARKSBURG     MOCLDY    49  25  39 CALM      30.27S
MORGANTOWN     MOCLDY    54  21  27 CALM      30.30R
$$

WVZ035-042-045-200600-
South Central West Virginia

CITY           SKY/WX    TMP DP  RH WIND       PRES   REMARKS
BECKLEY        MOCLDY    51  37  58 SE6       30.26S
BLUEFIELD      CLOUDY    53  37  54 SE5       30.27R
LEWISBURG      CLOUDY    45  36  71 CALM      30.28R
$$

WVZ047-200600-
Northern Mountains of West Virginia

CITY           SKY/WX    TMP DP  RH WIND       PRES   REMARKS
ELKINS         MOCLDY    41  32  70 CALM      30.29R
$$

WVZ052-200600-
Eastern Panhandle of West Virginia

CITY           SKY/WX    TMP DP  RH WIND       PRES   REMARKS
MARTINSBURG    MOCLDY    50  27  40 N7        30.34R
PETERSBURG     MOCLDY    47  43  85 CALM      30.33R
$$



USA.gov is the U.S. government's official web portal to all federal, state and local government web resources and services.